This is the latest recevied weather packets stored in our database for station/object N8ESC. If no packets are shown the sender has not sent any weather packets the latest 10 day(s).
| Time | Temp. | Humidity | Pressure | Rain* | Wind** | Luminosity | Snow |
|---|---|---|---|---|---|---|---|
| 1777914044 | 16.67° C | 53% | 989.4 hPa | 0 mm | - | 342 W/m² | - |
| 1777913739 | 16.67° C | 52% | 989.3 hPa | 0 mm | - | 300 W/m² | - |
| 1777913436 | 16.67° C | 51% | 989.6 hPa | 0 mm | - | 295 W/m² | - |
| 1777913132 | 17.22° C | 51% | 989.6 hPa | 0 mm | - | 371 W/m² | - |
| 1777912829 | 17.78° C | 49% | 989.6 hPa | 0 mm | - | 242 W/m² | - |
| 1777912526 | 17.22° C | 50% | 989.9 hPa | 0 mm | - | 757 W/m² | - |
| 1777912222 | 16.11° C | 52% | 990 hPa | 0 mm | - | 711 W/m² | - |
| 1777911918 | 15.56° C | 53% | 989.9 hPa | 0 mm | - | 312 W/m² | - |
| 1777911614 | 15.56° C | 53% | 990 hPa | 0 mm | - | 271 W/m² | - |
| 1777911310 | 15.56° C | 54% | 989.9 hPa | 0 mm | - | 447 W/m² | - |
| 1777911009 | 15.56° C | 54% | 989.8 hPa | 0 mm | - | 463 W/m² | - |
| 1777910706 | 15.56° C | 54% | 990 hPa | 0 mm | - | 466 W/m² | - |
| 1777910402 | 15.56° C | 54% | 990.1 hPa | 0 mm | - | 617 W/m² | - |
| 1777910098 | 15° C | 55% | 990 hPa | 0 mm | - | 398 W/m² | - |
| 1777909796 | 15° C | 55% | 990 hPa | 0 mm | - | 395 W/m² | - |
| 1777909493 | 15.56° C | 54% | 989.9 hPa | 0 mm | - | 327 W/m² | - |
| 1777909190 | 15° C | 55% | 989.6 hPa | 0 mm | - | 542 W/m² | - |
| 1777908888 | 15° C | 56% | 990.1 hPa | 0 mm | - | 531 W/m² | - |
| 1777908586 | 14.44° C | 57% | 990 hPa | 0 mm | - | 574 W/m² | - |
| 1777908282 | 14.44° C | 57% | 989.8 hPa | 0 mm | - | 367 W/m² | - |
| 1777907978 | 14.44° C | 58% | 990.2 hPa | 0 mm | - | 289 W/m² | - |
| 1777907674 | 13.89° C | 60% | 990.2 hPa | 0 mm | - | 652 W/m² | - |
| 1777907370 | 13.33° C | 61% | 990.4 hPa | 0 mm | - | 632 W/m² | - |
| 1777907066 | 12.78° C | 62% | 990 hPa | 0 mm | - | 547 W/m² | - |
| 1777906764 | 12.78° C | 63% | 990.4 hPa | 0 mm | - | 221 W/m² | - |
* Rain latest hour (hover to see other rain measurements)
** Current wind speed in m/s (hover to see current wind gust speed)